Weather History for LRAR - December, 2013

Change the Weather History Date:

Tuesday, December 10, 2013

  Actual Average Record
Temperature  
Mean Temperature 30 °F -  
Max Temperature 36 °F 37 °F 53 °F (1999)
Min Temperature 24 °F 25 °F 1 °F (2012)
Degree Days  
Heating Degree Days 35    
Moisture  
Dew Point 28 °F    
Average Humidity 76    
Maximum Humidity 100    
Minimum Humidity 44    
Precipitation  
Precipitation 0.00 in - - ()
Sea Level Pressure  
Sea Level Pressure 30.48 in    
Wind  
Wind Speed 10 mph ()    
Max Wind Speed 20 mph    
Max Gust Speed -    
Visibility 9.2 miles    
Events      
Averages and records for this station are not official NWS values.
T = Trace of Precipitation, MM = Missing Value Source: Averaged Metar Reports

Daily Weather History Graph

Daily Weather History Graph

Search for Another Location

Airport or City:

Trip Planner

Search our weather history database for the weather conditions in past years. The results will help you decide how hot, cold, wet, or windy it might be!

Date:

Astronomy

Dec. 10, 2013 Rise Set
Actual Time 8:06 AM EET 4:48 PM EET
Civil Twilight 7:31 AM EET 5:23 PM EET
Nautical Twilight 6:54 AM EET 6:01 PM EET
Astronomical Twilight 6:17 AM EET 6:37 PM EET
Moon 12:59 PM EET (12/10) 12:44 AM EET (12/10)
Length of Visible Light 9h 51m
Length of Day
8h 42m
First Quarter, 58% of the Moon is Illuminated
Dec 10
First Quarter
Dec 17
Full
Dec 25
Last Quarter
Jan 1
New
Jan 8
First Quarter

Hourly Weather History & Observations

Time (EET) Temp. Windchill Dew Point Humidity Pressure Visibility Wind Dir Wind Speed Gust Speed Precip Events Conditions
12:00 AM 43 °F - 40 °F 83% 30.22 in 12 mi West 4.5 mph - -   Overcast
12:00 AM 42.8 °F 39.3 °F 42.8 °F 100% 30.18 in 6.2 mi WNW 5.8 mph - N/A   Overcast
12:30 AM - - - N/A% 30.21 in 6.2 mi NW 9.2 mph - N/A   Scattered Clouds
1:00 AM 43 °F - 39 °F 82% 30.22 in 12 mi WNW 2.2 mph - -   Overcast
1:00 AM 42.8 °F 37.0 °F 42.8 °F 100% 30.21 in 6.2 mi WNW 10.4 mph - N/A   Mostly Cloudy
1:30 AM - - - N/A% 30.21 in 6.2 mi NNW 11.5 mph - N/A   Mostly Cloudy
2:00 AM 43 °F - 39 °F 82% 30.24 in 12 mi NW 4.5 mph - -   Overcast
2:00 AM 42.8 °F 36.6 °F 42.8 °F 100% 30.24 in 6.2 mi NNW 11.5 mph - N/A   Mostly Cloudy
2:30 AM - - - N/A% 30.24 in 6.2 mi North 9.2 mph - N/A   Mostly Cloudy
3:00 AM 43 °F - 40 °F 83% 30.27 in 12 mi NNW 4.5 mph - -   Overcast
3:00 AM 42.8 °F 35.4 °F 42.8 °F 100% 30.27 in 6.2 mi NNE 15.0 mph - N/A   Mostly Cloudy
3:30 AM 41.0 °F 32.8 °F 35.6 °F 81% 30.30 in 6.2 mi NE 16.1 mph - N/A   Mostly Cloudy
4:00 AM 40 °F - 35 °F 75% 30.30 in 12 mi North 11.2 mph - -   Overcast
4:00 AM 39.2 °F 30.5 °F 33.8 °F 81% 30.30 in 6.2 mi NNE 16.1 mph - N/A   Mostly Cloudy
4:30 AM 37.4 °F 28.2 °F 32.0 °F 81% 30.30 in 6.2 mi NE 16.1 mph - N/A   Mostly Cloudy
5:00 AM 38 °F - 31 °F 67% 30.33 in 12 mi North 11.2 mph - -   Partly Cloudy
5:00 AM 37.4 °F 28.9 °F 32.0 °F 81% 30.33 in 6.2 mi NE 13.8 mph - N/A   Mostly Cloudy
5:30 AM 37.4 °F 28.5 °F 30.2 °F 75% 30.33 in 6.2 mi NNE 15.0 mph - N/A   Mostly Cloudy
6:00 AM 36 °F - 29 °F 65% 30.37 in 12 mi North 8.9 mph - -   Mostly Cloudy
6:00 AM 35.6 °F 26.2 °F 30.2 °F 81% 30.36 in 6.2 mi NNE 15.0 mph - N/A   Mostly Cloudy
6:30 AM 35.6 °F 26.6 °F 30.2 °F 81% 30.36 in 6.2 mi NNE 13.8 mph - N/A   Mostly Cloudy
7:00 AM 35 °F - 28 °F 68% 30.39 in 12 mi North 11.2 mph - -   Overcast
7:00 AM 35.6 °F 25.9 °F 30.2 °F 81% 30.39 in 6.2 mi NNE 16.1 mph - N/A   Overcast
7:30 AM 33.8 °F 23.9 °F 30.2 °F 87% 30.42 in 6.2 mi NNE 15.0 mph - N/A   Mostly Cloudy
8:00 AM 34 °F - 28 °F 70% 30.43 in 12 mi North 8.9 mph - -   Mostly Cloudy
8:00 AM 33.8 °F 24.3 °F 30.2 °F 87% 30.42 in 6.2 mi NNE 13.8 mph - N/A   Mostly Cloudy
8:30 AM 33.8 °F 24.3 °F 30.2 °F 87% 30.42 in - NNE 13.8 mph - N/A   Clear
9:00 AM 33 °F - 28 °F 73% 30.46 in 6 mi NNW 6.7 mph - -   Partly Cloudy
9:00 AM 33.8 °F 24.3 °F 28.4 °F 81% 30.45 in - NNE 13.8 mph - N/A   Clear
9:30 AM 33.8 °F 23.5 °F 28.4 °F 81% 30.48 in - NNE 16.1 mph - N/A   Clear
10:00 AM 33 °F - 28 °F 73% 30.49 in 6 mi North 8.9 mph - -   Mostly Cloudy
10:00 AM 33.8 °F 23.5 °F 28.4 °F 81% 30.48 in - NNE 16.1 mph - N/A   Clear
10:30 AM 33.8 °F 23.2 °F 28.4 °F 81% 30.51 in - NNE 17.3 mph - N/A   Clear
11:00 AM 34 °F - 27 °F 65% 30.52 in 12 mi North 13.4 mph - -   Mostly Cloudy
11:00 AM 33.8 °F 23.5 °F 28.4 °F 81% 30.51 in - NE 16.1 mph - N/A   Clear
11:30 AM 35.6 °F 25.2 °F 26.6 °F 70% 30.54 in - NE 18.4 mph - N/A   Clear
12:00 PM 35 °F - 25 °F 56% 30.55 in 12 mi North 13.4 mph - -   Scattered Clouds
12:00 PM 35.6 °F 24.8 °F 26.6 °F 70% 30.54 in - NNE 19.6 mph - N/A   Clear
12:30 PM 35.6 °F 25.2 °F 26.6 °F 70% 30.54 in - NE 18.4 mph - N/A   Clear
1:00 PM 36 °F - 26 °F 54% 30.56 in 6 mi North 13.4 mph - -  
1:00 PM 35.6 °F 25.2 °F 24.8 °F 65% 30.54 in - NE 18.4 mph - N/A   Clear
1:30 PM 35.6 °F 25.9 °F 24.8 °F 65% 30.57 in - NNE 16.1 mph - N/A   Clear
2:00 PM 36 °F - 24 °F 50% 30.58 in 12 mi North 13.4 mph - -  
2:00 PM 35.6 °F 25.9 °F 24.8 °F 65% 30.57 in - NE 16.1 mph - N/A   Clear
2:30 PM 35.6 °F 26.6 °F 24.8 °F 65% 30.57 in - NNE 13.8 mph - N/A   Clear
3:00 PM 36 °F - 22 °F 44% 30.59 in 12 mi North 13.4 mph - -  
3:00 PM 35.6 °F 25.9 °F 23.0 °F 60% 30.57 in - NNE 16.1 mph - N/A   Clear
3:30 PM 35.6 °F 26.2 °F 24.8 °F 65% 30.60 in - NNE 15.0 mph - N/A   Clear
4:00 PM 35 °F - 22 °F 47% 30.61 in 12 mi North 11.2 mph - -  
4:00 PM 33.8 °F 24.3 °F 24.8 °F 70% 30.60 in - NNE 13.8 mph - N/A   Clear
4:30 PM 33.8 °F 24.3 °F 24.8 °F 70% 30.63 in - North 13.8 mph - N/A   Clear
5:00 PM 33 °F - 23 °F 55% 30.64 in 12 mi North 6.7 mph - -  
5:00 PM 32.0 °F 23.0 °F 24.8 °F 75% 30.63 in - North 11.5 mph - N/A   Clear
5:30 PM 30.2 °F 21.9 °F 24.8 °F 80% 30.63 in - North 9.2 mph - N/A   Clear
6:00 PM 31 °F - 23 °F 63% 30.66 in 12 mi North 4.5 mph - -  
6:00 PM 30.2 °F 24.3 °F 24.8 °F 80% 30.63 in - North 5.8 mph - N/A   Clear
6:30 PM 28.4 °F 22.2 °F 24.8 °F 86% 30.66 in - North 5.8 mph - N/A   Clear
7:00 PM 30 °F - 23 °F 67% 30.67 in 12 mi NNW 4.5 mph - -  
7:00 PM 28.4 °F 20.4 °F 24.8 °F 86% 30.66 in - North 8.1 mph - N/A   Clear
7:30 PM 28.4 °F 22.2 °F 24.8 °F 86% 30.66 in - North 5.8 mph - N/A   Clear
8:00 PM 29 °F - 22 °F 67% 30.69 in 12 mi NNW 6.7 mph - -  
8:00 PM 26.6 °F 19.1 °F 23.0 °F 86% 30.66 in - North 6.9 mph - N/A   Clear
8:30 PM 26.6 °F 17.5 °F 23.0 °F 86% 30.69 in - North 9.2 mph - N/A   Clear
9:00 PM 28 °F - 22 °F 69% 30.70 in 12 mi NNW 6.7 mph - -  
9:00 PM 26.6 °F 20.0 °F 23.0 °F 86% 30.69 in - North 5.8 mph - N/A   Clear
10:00 PM 26 °F - 22 °F 77% 30.72 in 12 mi North 4.5 mph - -  
10:00 PM 26.6 °F 22.6 °F 23.0 °F 86% 30.69 in - NNE 3.5 mph - N/A   Clear
11:00 PM 24 °F - 21 °F 85% 30.73 in 12 mi North 2.2 mph - -  
11:00 PM 24.8 °F - 23.0 °F 93% 30.69 in - NNE 1.2 mph - N/A   Clear